Flag for Poland Weather past 2 weeks in Płock, Poland

Now
62 °F

Overcast.


Feels Like: 62 °F
Forecast: 51 / 65 °F
Wind: 1 mph from Northwest

Location: Plock

Current Time: Sep 30, 2014 at 3:05:58 PM

Latest Report: Sep 30, 2014 at 2:00 PM


Visibility: 6 mi

Pressure: 30.23 "Hg

Humidity: 78%

Dew point: 55 °F

Location of PłockLocation

Historic Weather in Płock — Graph

°F

Płock temperature yesterday

Maximum temperature yesterday: 69 °F (at 4:00 PM)
Minimum temperature yesterday: 44 °F (at 7:00 AM)
Average temperature yesterday: 56 °F

Past Weeks' High & Low Weather Summary

 TemperatureHumidityPressure
High74 °F (Sep 15, 4:00 PM)99% (Sep 21, 7:00 AM)30.36 "Hg (Sep 21, 7:00 AM)
Low35 °F (Sep 24, 7:00 AM)37% (Sep 16, 4:00 PM)29.66 "Hg (Sep 22, 5:00 AM)
Average56 °F78%30.06 "Hg
* Reported Sep 15 1:00 PM — Sep 30 1:00 PM, Płock, Weather by CustomWeather, © 2014

Note: Actual official high and low records may vary slightly from our data, if they occured in-between our weather recording intervals... More about our weather records

Advertising

Płock weather history for previous 24 hours

 ConditionsComfort  
Time TempWeatherWind HumidityBarometerVisibility
1:00 PM
Sep 30
63 °FOvercast.1 mph75%30.22 "Hg6 mi
12:00 PM63 °FFog.1 mph76%30.22 "Hg6 mi
11:00 AM62 °FOvercast.2 mph81%30.22 "Hg6 mi
10:00 AM59 °FFog.1 mph91%30.22 "Hg3 mi
9:00 AM56 °FOvercast.1 mph97%30.22 "Hg2 mi
8:00 AM52 °FSprinkles. Overcast.No wind98%30.22 "Hg1 mi
7:00 AM51 °FFog.1 mph98%30.21 "Hg1 mi
6:00 AM50 °FFog.No wind98%30.20 "Hg1 mi
5:00 AM50 °FFog.1 mph98%30.20 "Hg1 mi
4:00 AM49 °FFog.1 mph97%30.20 "Hg2 mi
3:00 AM49 °FFog.No wind97%30.20 "Hg2 mi
2:00 AM50 °FFog.No wind97%30.20 "Hg2 mi
1:00 AM51 °FFog.1 mph97%30.21 "Hg2 mi
12:00 AM50 °FFog.No wind94%30.21 "Hg3 mi
11:00 PM
Sep 29
52 °FFog.1 mph90%30.20 "Hg4 mi
10:00 PM56 °FOvercast.1 mph86%30.20 "Hg7 mi
9:00 PM57 °FOvercast.1 mph80%30.20 "Hg8 mi
8:00 PM57 °FOvercast.No wind80%30.20 "Hg9 mi
7:00 PM60 °FOvercast.1 mph77%30.20 "Hg16 mi
6:00 PM64 °FOvercast.2 mph67%30.20 "Hg22 mi
5:00 PM67 °FOvercast.2 mph60%30.19 "Hg22 mi
4:00 PM69 °FOvercast.3 mph56%30.20 "Hg19 mi
3:00 PM67 °FOvercast.3 mph60%30.22 "Hg16 mi
Weather by CustomWeather, © 2014

See weather overviewHow to use our weather pages